| time (UTC) | temp F | wind direction | speed MPH | gust MPH | rain 1hr in | rain 24hr in | rain mn in | humidity % | barometer mb |
| 20260506131605 | 52 | 144 | 1.0 | 4.0 | 0.00 | 0.00 | 0.00 | 69 | 1018.1 |
| 20260506130054 | 52 | 196 | 0.0 | 2.0 | 0.00 | 0.00 | 0.00 | 68 | 1018.1 |
| 20260506124550 | 52 | 142 | 0.0 | 3.0 | 0.00 | 0.00 | 0.00 | 68 | 1018.1 |
| 20260506123052 | 52 | 165 | 0.0 | 6.0 | 0.00 | 0.00 | 0.00 | 67 | 1017.7 |
| 20260506121553 | 52 | 204 | 0.0 | 6.0 | 0.00 | 0.00 | 0.00 | 68 | 1017.9 |
| 20260506120052 | 52 | 150 | 1.0 | 5.0 | 0.00 | 0.00 | 0.00 | 69 | 1017.6 |
| 20260506114552 | 52 | 44 | 1.0 | 7.0 | 0.00 | 0.00 | 0.00 | 70 | 1017.6 |
| 20260506113045 | 52 | 46 | 2.0 | 7.0 | 0.00 | 0.00 | 0.00 | 74 | 1017.6 |
| 20260506111542 | 51 | 234 | 1.0 | 5.0 | 0.00 | 0.00 | 0.00 | 78 | 1017.3 |
| 20260506110042 | 51 | 141 | 0.0 | 2.0 | 0.00 | 0.00 | 0.00 | 79 | 1017.1 |
| 20260506104544 | 51 | 132 | 0.0 | 1.0 | 0.00 | 0.00 | 0.00 | 79 | 1017.1 |
| 20260506103039 | 50 | 132 | 0.0 | 2.0 | 0.00 | 0.00 | 0.00 | 79 | 1017.0 |
| 20260506101538 | 50 | 135 | 0.0 | 2.0 | 0.00 | 0.00 | 0.00 | 78 | 1017.0 |
| 20260506100039 | 50 | 99 | 0.0 | 2.0 | 0.00 | 0.00 | 0.00 | 77 | 1016.9 |
| 20260506094535 | 50 | 158 | 0.0 | 0.0 | 0.00 | 0.00 | 0.00 | 76 | 1016.9 |
| 20260506093033 | 50 | 158 | 0.0 | 7.0 | 0.00 | 0.00 | 0.00 | 75 | 1016.7 |
| 20260506091532 | 50 | 146 | 0.0 | 1.0 | 0.00 | 0.00 | 0.00 | 73 | 1016.7 |
| 20260506090029 | 50 | 145 | 0.0 | 1.0 | 0.00 | 0.00 | 0.00 | 72 | 1016.6 |
| 20260506084527 | 50 | 144 | 0.0 | 1.0 | 0.00 | 0.00 | 0.00 | 71 | 1016.5 |
| 20260506083024 | 50 | 145 | 0.0 | 1.0 | 0.00 | 0.00 | 0.00 | 71 | 1016.3 |
| 20260506081522 | 50 | 145 | 0.0 | 1.0 | 0.00 | 0.00 | 0.00 | 69 | 1016.1 |
| 20260506073015 | 52 | 145 | 0.0 | 0.0 | 0.00 | 0.00 | 0.00 | 68 | 1015.9 |
| 20260506071616 | 52 | 145 | 0.0 | 1.0 | 0.00 | 0.00 | 0.00 | 68 | 1015.9 |
| 20260506061505 | 55 | 145 | 0.0 | 0.0 | 0.00 | 0.00 | 0.00 | 67 | 1015.5 |
| 20260506044502 | 57 | 61 | 0.0 | 3.0 | 0.00 | 0.00 | 0.00 | 66 | 1014.5 |
| 20260506043002 | 57 | 142 | 0.0 | 2.0 | 0.00 | 0.00 | 0.00 | 66 | 1014.4 |
| 20260506041501 | 58 | 112 | 0.0 | 2.0 | 0.00 | 0.00 | 0.00 | 65 | 1014.3 |
| 20260506040001 | 58 | 146 | 0.0 | 1.0 | 0.00 | 0.00 | 0.00 | 65 | 1014.3 |
| 20260506034605 | 59 | 148 | 0.0 | 0.0 | 0.00 | 0.00 | 0.00 | 64 | 1014.2 |
| 20260506033100 | 60 | 148 | 0.0 | 1.0 | 0.00 | 0.00 | 0.00 | 63 | 1014.0 |
| 20260506031603 | 60 | 148 | 0.0 | 1.0 | 0.00 | 0.00 | 0.00 | 61 | 1014.1 |
| 20260506030116 | 61 | 146 | 0.0 | 4.0 | 0.00 | 0.00 | 0.00 | 60 | 1014.0 |
| 20260506021558 | 63 | 150 | 0.0 | 5.0 | 0.00 | 0.00 | 0.00 | 58 | 1013.9 |
| 20260506020051 | 63 | 145 | 1.0 | 5.0 | 0.00 | 0.00 | 0.00 | 58 | 1013.8 |
| 20260506014558 | 63 | 159 | 2.0 | 8.0 | 0.00 | 0.00 | 0.00 | 57 | 1013.9 |
| 20260506013054 | 64 | 147 | 2.0 | 7.0 | 0.00 | 0.00 | 0.00 | 56 | 1013.8 |
| 20260506011550 | 64 | 155 | 1.0 | 6.0 | 0.00 | 0.00 | 0.00 | 56 | 1013.8 |
| 20260506010053 | 64 | 94 | 0.0 | 3.0 | 0.00 | 0.00 | 0.00 | 56 | 1013.7 |
| 20260506004551 | 65 | 160 | 1.0 | 9.0 | 0.00 | 0.00 | 0.00 | 54 | 1013.8 |
| 20260506003047 | 65 | 135 | 2.0 | 7.0 | 0.00 | 0.00 | 0.00 | 53 | 1013.8 |
| 20260506001551 | 66 | 130 | 2.0 | 8.0 | 0.00 | 0.00 | 0.00 | 53 | 1013.9 |
| 20260506000046 | 66 | 123 | 2.0 | 9.0 | 0.00 | 0.00 | 0.00 | 52 | 1014.0 |
| 20260505234545 | 67 | 142 | 2.0 | 7.0 | 0.00 | 0.00 | 0.00 | 50 | 1014.2 |
| 20260505233044 | 67 | 150 | 1.0 | 6.0 | 0.00 | 0.00 | 0.00 | 50 | 1014.3 |
| 20260505231544 | 68 | 146 | 3.0 | 9.0 | 0.00 | 0.00 | 0.00 | 50 | 1014.4 |
| 20260505230048 | 68 | 64 | 2.0 | 8.0 | 0.00 | 0.00 | 0.00 | 49 | 1014.5 |
| 20260505224546 | 68 | 118 | 1.0 | 6.0 | 0.00 | 0.00 | 0.00 | 51 | 1014.6 |
| 20260505223039 | 67 | 67 | 1.0 | 7.0 | 0.00 | 0.00 | 0.00 | 52 | 1014.7 |
| 20260505221538 | 67 | 169 | 1.0 | 6.0 | 0.00 | 0.00 | 0.00 | 50 | 1014.8 |
| 20260505220137 | 67 | 191 | 1.0 | 9.0 | 0.00 | 0.00 | 0.00 | 50 | 1014.8 |
| 20260505214537 | 68 | 141 | 3.0 | 8.0 | 0.00 | 0.00 | 0.00 | 50 | 1015.0 |
| 20260505213038 | 67 | 177 | 2.0 | 10.0 | 0.00 | 0.00 | 0.00 | 50 | 1015.1 |
| 20260505211536 | 67 | 137 | 2.0 | 9.0 | 0.00 | 0.00 | 0.00 | 50 | 1015.2 |
| 20260505210030 | 67 | 187 | 2.0 | 8.0 | 0.00 | 0.00 | 0.00 | 51 | 1015.1 |
| 20260505204532 | 65 | 212 | 3.0 | 8.0 | 0.00 | 0.00 | 0.00 | 52 | 1015.2 |
| 20260505203027 | 64 | 105 | 1.0 | 8.0 | 0.00 | 0.00 | 0.00 | 55 | 1015.3 |
| 20260505201519 | 63 | 160 | 2.0 | 5.0 | 0.00 | 0.00 | 0.00 | 54 | 1015.3 |
| 20260505200017 | 62 | 74 | 1.0 | 8.0 | 0.00 | 0.00 | 0.00 | 57 | 1015.2 |
| 20260505194516 | 62 | 194 | 2.0 | 7.0 | 0.00 | 0.00 | 0.00 | 56 | 1015.3 |
| 20260505193012 | 60 | 169 | 0.0 | 6.0 | 0.00 | 0.00 | 0.00 | 60 | 1015.4 |
| 20260505191509 | 60 | 128 | 1.0 | 5.0 | 0.00 | 0.00 | 0.00 | 59 | 1015.3 |
| 20260505190014 | 60 | 216 | 1.0 | 5.0 | 0.00 | 0.00 | 0.00 | 59 | 1015.3 |
| 20260505184506 | 59 | 255 | 2.0 | 8.0 | 0.00 | 0.00 | 0.00 | 59 | 1015.3 |
| 20260505183004 | 59 | 175 | 2.0 | 6.0 | 0.00 | 0.00 | 0.00 | 59 | 1015.3 |
| 20260505181502 | 58 | 220 | 0.0 | 6.0 | 0.00 | 0.00 | 0.00 | 60 | 1015.2 |
| 20260505180107 | 58 | 174 | 0.0 | 5.0 | 0.00 | 0.00 | 0.00 | 60 | 1015.2 |
| 20260505174558 | 57 | 249 | 1.0 | 7.0 | 0.00 | 0.00 | 0.00 | 61 | 1015.2 |
| 20260505173054 | 57 | 212 | 1.0 | 8.0 | 0.00 | 0.00 | 0.00 | 62 | 1015.1 |
| 20260505171553 | 56 | 209 | 0.0 | 4.0 | 0.00 | 0.00 | 0.00 | 63 | 1015.0 |
| 20260505170050 | 56 | 155 | 1.0 | 6.0 | 0.00 | 0.00 | 0.00 | 62 | 1014.9 |
| 20260505164549 | 56 | 291 | 1.0 | 9.0 | 0.00 | 0.00 | 0.00 | 62 | 1014.9 |
| 20260505163048 | 55 | 256 | 1.0 | 5.0 | 0.00 | 0.00 | 0.00 | 62 | 1014.7 |
| 20260505161546 | 55 | 139 | 2.0 | 5.0 | 0.00 | 0.00 | 0.00 | 63 | 1014.8 |
| 20260505153047 | 54 | 227 | 0.0 | 4.0 | 0.00 | 0.00 | 0.00 | 64 | 1014.7 |
| 20260505151541 | 54 | 156 | 0.0 | 7.0 | 0.00 | 0.00 | 0.00 | 64 | 1014.6 |